Regional Weather Roundup
Issued by NWS Little Rock, AR

Home | Current Version | Previous Version | Text Only | Print | Product List | Glossary Off
Versions: 1 2 3 4 5 6 7 8 9 10 11 12 13 14 15 16 17 18 19 20 21 22 23 24 25 26 27 28 29 30 31 32 33 34 35 36 37 38 39 40 41 42 43 44 45 46 47

000
ASUS44 KLZK 221505
RWRLZK

WEATHER ROUNDUP FOR ARKANSAS
NATIONAL WEATHER SERVICE LITTLE ROCK AR
1000 AM CDT FRI MAY 22 2015

NOTE: "FAIR" INDICATES FEW OR NO CLOUDS BELOW 12,000 FEET WITH NO
SIGNIFICANT WEATHER AND/OR OBSTRUCTIONS TO VISIBILITY.

ARZ001-003-010-029-221600-
NORTHWEST ARKANSAS

CITY           SKY/WX    TMP DP  RH WIND       PRES   REMARKS
FAYETTEVILLE   MOSUNNY   59  48  67 SE7       30.28S
FORT SMITH     MOSUNNY   61  48  62 E12G18    30.28S
HARRISON       SUNNY     60  47  61 SE10      30.31R
BENTONVILLE    MOSUNNY   59  45  58 SE8       30.30R
ROGERS         MOSUNNY   59  48  67 S12       30.30R
SILOAM SPGS    CLOUDY    57  46  67 S8        30.30S
HIGHFILL       MOSUNNY   59  49  69 S6        30.29R
SPRINGDALE     MOSUNNY   57  48  72 SE7G16    30.31R
$$

ARZ004-005-016-221600-
NORTH CENTRAL ARKANSAS

CITY           SKY/WX    TMP DP  RH WIND       PRES   REMARKS
BATESVILLE     SUNNY     63  46  55 E9        30.31S
FLIPPIN        SUNNY     57  50  77 SE3       30.30R
MTN HOME       SUNNY     59  47  64 SE9       30.30R
$$

ARZ040-041-221600-
WEST CENTRAL ARKANSAS

CITY           SKY/WX    TMP DP  RH WIND       PRES   REMARKS
MENA           SUNNY     63  48  59 E10G16    30.27F
MOUNT IDA      SUNNY     60  47  61 SE7       30.26F
$$

ARZ009-017-025-026-028-221600-
NORTHEAST ARKANSAS

CITY           SKY/WX    TMP DP  RH WIND       PRES   REMARKS
CORNING          N/A     59  48  67 CALM      30.32F
JONESBORO      SUNNY     61  48  62 E5        30.31F
NEWPORT        SUNNY     63  47  55 E8        30.32F
WALNUT RIDGE   SUNNY     59  45  58 E5        30.31F
BLYTHEVILLE    SUNNY     61  50  67 E3        30.31F
$$

ARZ022-023-033-042-044-221600-
CENTRAL ARKANSAS

CITY           SKY/WX    TMP DP  RH WIND       PRES   REMARKS
LITTLE ROCK    MOSUNNY   62  47  57 SE9       30.31R
N LITTLE ROCK  MOSUNNY   58  51  75 SE8       30.31R
JACKSONVILLE   SUNNY     62  48  60 SE6       30.31R
HOT SPRINGS    SUNNY     60  46  59 E12       30.30R
RUSSELLVILLE   MOSUNNY   61  48  62 E7        30.31R
CLINTON        FAIR      61  48  63 S3        30.33R
$$

ARZ036-221600-
EAST ARKANSAS

CITY           SKY/WX    TMP DP  RH WIND       PRES   REMARKS
WEST MEMPHIS   SUNNY     61  48  62 SE9       30.29F
$$

ARZ050-053-066-070-073-221600-
SOUTHWEST ARKANSAS

CITY           SKY/WX    TMP DP  RH WIND       PRES   REMARKS
ARKADELPHIA    FAIR      63  52  67 VRB6      30.30S
CAMDEN         SUNNY     63  46  55 NE10G16   30.28S
TEXARKANA      SUNNY     59  50  72 E8        30.26S
EL DORADO      SUNNY     61  49  64 E10       30.27S
DE QUEEN       SUNNY     61  49  64 E14       30.25F
$$

ARZ056-057-069-221600-
SOUTHEAST ARKANSAS

CITY           SKY/WX    TMP DP  RH WIND       PRES   REMARKS
PINE BLUFF     SUNNY     61  50  67 E10       30.30S
STUTTGART      SUNNY     61  46  59 E9        30.31S
MONTICELLO     SUNNY     61  49  64 E12       30.27F

$$




USA.gov is the U.S. government's official web portal to all federal, state and local government web resources and services.